{"data":{"norad_id":67502,"epoch":"2026-05-24T14:34:16.000032Z","epoch_age_seconds":102294,"freshness":"FRESH","line1":"1 67502U 26012K   26144.60712963  .00016464  00000+0  60615-3 0  9993","line2":"2 67502  43.0023 245.5536 0002166 243.5795 116.4835 15.27597792 19376","mean_motion":15.27597792,"eccentricity":0.0002166,"inclination_deg":43.0023,"raan_deg":245.5536,"arg_perigee_deg":243.5795,"mean_anomaly_deg":116.4835,"bstar":0.00060615,"rev_number":1937,"period_min":94.265650784601,"perigee_km":481.50969953909,"apogee_km":484.48194227711,"semimajor_km":6861.1328209081,"source":"CELESTRAK","updated_at":"2026-05-25T13:38:21.568205Z"}}